Wetbulb
69.50 67.12 63.13 59.44 52.24 51.00 46.76 52.08 57.43 57.10 57.93 62.15 63.67 61.90 59.61 61.28 57.96 49.88 64.40 66.28 68.91 71.89 72.96 74.49 75.94 75.91 75.51 75.34 75.04 74.03 73.40 72.86 72.40 72.01 72.09 71.47 71.29 71.65 71.81 72.31 72.77 72.10 71.18 70.97 70.78 70.72 70.94 71.52 72.44
66.81 64.38 58.03 54.49 48.62 44.59 46.92 53.09 54.07 57.46 60.27 62.59 64.17 62.78 60.77 58.70 63.98 62.91 64.17 67.75 71.27 72.43 72.81 73.81 75.43 75.33 75.33 75.11 74.46 73.71 73.32 72.89 72.45 71.89 71.76 71.28 71.17 71.47 71.55 71.67 71.18 70.93 70.70 70.51 70.50 70.39 70.69 70.98 71.56
62.06 55.73 54.21 49.47 46.78 45.12 47.35 55.08 55.51 58.07 60.93 61.73 60.58 64.42 62.89 60.22 64.47 65.22 68.53 70.86 72.02 71.80 72.53 73.10 74.74 74.74 74.54 74.64 73.96 73.19 72.76 72.32 72.15 71.43 71.15 71.06 71.32 71.28 71.51 70.98 70.64 70.20 69.88 69.88 69.85 69.76 69.89 70.38 70.85
56.05 53.79 55.52 48.26 46.27 50.26 53.47 56.62 56.56 57.03 60.78 63.19 62.99 60.33 64.76 67.55 66.37 69.02 71.11 72.00 71.22 71.48 72.56 73.46 74.36 74.39 74.19 73.94 73.46 72.73 72.23 71.97 71.78 71.45 70.58 70.71 70.84 70.93 70.81 70.30 70.01 69.39 68.99 68.88 68.96 69.00 69.33 69.63 70.21
51.02 54.01 48.14 46.98 47.06 51.95 56.24 57.36 58.72 58.96 60.18 61.37 62.25 58.94 61.13 67.19 70.11 70.82 70.76 71.26 70.46 70.77 71.30 71.89 73.69 73.59 73.17 73.51 72.66 72.11 71.88 71.63 71.44 71.19 70.40 70.08 70.07 70.03 70.04 69.63 69.17 68.79 68.34 67.78 67.83 68.36 68.72 69.32 69.55
46.44 51.80 46.19 44.14 46.96 52.71 55.26 57.10 58.79 58.16 60.00 60.30 61.02 60.65 61.15 65.76 66.68 68.52 70.07 70.07 70.73 70.20 70.27 70.56 72.64 73.02 72.97 72.62 71.99 71.52 71.30 71.19 70.93 70.75 70.70 69.76 69.13 68.90 68.74 68.71 68.65 68.60 68.11 67.56 67.43 68.03 68.63 69.37 69.38
46.73 48.01 45.02 45.71 48.47 51.42 55.20 58.55 56.71 58.06 58.82 60.17 61.99 59.32 61.47 63.53 65.59 66.60 67.35 67.22 67.36 67.81 68.37 68.81 69.57 71.11 72.05 71.85 71.43 71.23 70.99 70.79 70.84 70.75 70.54 70.16 69.67 69.28 69.13 69.00 68.75 68.43 68.17 67.92 67.34 67.87 68.45 68.70 68.99
52.92 50.64 47.02 47.71 47.95 47.44 56.80 59.36 61.30 60.37 58.81 63.58 64.11 59.24 58.44 63.02 65.42 66.03 65.70 65.31 65.12 64.61 65.56 67.05 67.91 68.36 68.51 68.20 71.21 70.57 69.62 70.48 70.72 70.75 70.03 69.59 68.75 69.02 69.03 69.02 69.64 69.36 68.47 67.97 67.52 67.86 68.41 66.79 67.47
51.90 48.05 45.07 46.84 48.62 52.52 57.60 58.08 61.23 62.50 60.23 61.12 62.48 61.56 63.06 64.53 65.49 64.81 63.94 63.73 64.00 64.63 64.02 64.76 64.45 65.07 67.01 66.11 66.88 66.43 67.78 67.30 67.17 67.27 67.98 65.38 65.13 66.07 66.89 68.71 69.39 69.51 69.59 68.51 67.95 68.12 66.31 64.36 63.83
49.65 47.06 48.55 54.32 54.79 55.31 58.14 58.60 60.63 58.72 58.49 58.92 60.21 62.12 63.19 63.60 63.20 61.99 61.64 61.09 61.13 61.08 61.91 62.81 63.57 64.23 64.82 65.14 64.57 63.92 63.73 63.48 63.97 64.23 63.99 64.43 64.23 65.41 65.81 66.41 68.37 68.58 69.01 68.54 66.93 65.91 64.47 62.14 60.39
53.75 49.09 54.81 56.32 58.19 59.43 57.66 57.55 60.92 57.61 55.55 58.40 58.12 59.72 61.18 61.02 60.74 59.87 59.19 58.94 59.00 60.22 60.42 60.67 60.47 61.35 62.93 63.35 64.13 63.97 63.62 63.06 63.02 62.80 62.79 62.66 63.56 64.22 63.80 63.98 64.32 64.62 65.56 64.20 64.23 63.98 63.56 61.97 61.10
54.68 56.93 57.10 57.77 59.72 58.83 57.15 58.51 57.26 57.76 57.86 60.17 60.31 60.40 60.09 58.81 59.06 59.35 59.32 59.46 58.51 57.49 57.89 58.82 58.14 57.20 58.27 59.94 60.77 61.73 61.89 61.85 61.17 61.26 60.97 61.47 61.67 62.18 62.34 62.20 62.85 62.47 62.53 62.24 62.32 61.72 61.40 61.40 61.19
55.30 56.27 57.96 58.40 57.47 57.14 58.10 56.62 56.59 57.26 59.74 60.77 60.23 59.07 58.02 57.99 57.92 58.53 58.81 59.23 57.33 55.39 54.46 53.37 53.89 53.24 53.29 54.64 55.73 54.48 54.56 57.10 59.17 59.05 58.75 58.74 58.27 58.99 59.83 59.97 61.55 61.52 61.62 61.25 60.87 60.78 60.68 60.38 60.22
57.52 57.20 56.82 57.77 56.95 57.16 55.61 55.92 56.01 56.90 59.09 58.29 57.90 56.67 57.03 57.44 57.69 57.72 57.05 55.11 54.48 54.13 54.04 54.27 52.73 52.98 53.06 52.30 52.26 52.11 52.90 53.95 55.50 58.03 58.42 57.74 57.01 56.36 56.24 56.78 58.01 57.92 58.70 59.52 59.79 59.44 59.30 59.03 58.83
58.07 54.17 55.78 56.30 56.20 55.15 56.48 52.51 53.33 57.58 58.05 56.52 56.20 55.72 56.14 57.08 58.02 56.39 54.75 53.55 53.17 53.84 54.76 53.91 54.13 52.82 52.48 52.31 51.69 51.33 52.23 53.47 55.04 56.01 57.08 57.37 57.13 56.42 55.80 55.00 55.19 56.20 56.14 57.10 58.95 59.90 59.61 58.41 57.91
54.40 52.42 49.34 53.50 55.72 56.56 54.17 49.07 55.37 57.43 56.30 54.74 54.68 54.37 54.48 54.60 54.95 55.31 55.20 54.98 55.44 54.80 53.69 53.47 53.96 52.28 51.67 51.31 51.84 51.01 51.18 51.10 52.11 54.27 55.96 57.60 58.10 57.39 55.91 54.92 54.15 54.76 55.57 56.69 56.91 57.53 57.71 57.95 57.63
46.15 41.63 47.29 52.48 53.52 54.34 51.77 49.45 54.64 57.15 56.04 54.31 52.79 52.30 52.81 53.08 54.13 55.01 56.55 55.85 55.29 54.94 54.69 54.32 52.78 51.85 51.33 51.21 51.83 51.69 51.27 50.75 50.78 52.35 53.21 54.45 55.16 55.51 55.74 53.64 53.06 52.80 53.29 53.40 54.93 55.81 56.21 55.97 56.16
39.67 43.33 45.05 46.16 51.13 52.35 50.23 49.10 51.96 54.46 54.95 52.94 51.47 51.49 51.50 52.62 53.66 55.53 56.52 57.70 56.89 56.50 55.68 54.74 52.73 51.63 51.17 50.89 51.82 51.56 50.94 51.17 50.74 51.37 52.54 53.72 54.52 55.64 54.56 52.90 52.52 52.72 52.78 52.95 52.37 52.56 54.03 55.19 55.79
48.57 46.40 46.62 49.63 51.52 50.49 48.00 48.27 50.35 53.43 53.60 51.12 50.50 50.90 51.26 52.24 54.50 56.18 57.48 57.63 56.58 57.48 54.52 52.95 50.61 50.30 50.63 49.72 49.60 49.60 48.68 49.28 49.88 51.08 52.61 53.33 54.30 54.78 52.85 51.28 51.61 51.80 51.78 52.52 52.21 52.61 52.52 52.89 54.52
49.12 46.65 46.38 47.88 49.93 49.17 48.15 47.66 51.40 53.66 53.40 51.85 51.98 52.27 51.98 51.97 54.31 55.92 53.68 53.68 53.39 53.76 51.07 50.17 49.75 49.91 50.11 49.62 49.18 48.76 48.40 48.96 49.04 50.31 51.18 52.23 53.15 54.54 55.05 52.98 52.44 52.27 51.63 51.76 52.00 51.68 51.34 51.93 53.74
46.70 46.19 45.78 45.42 48.70 49.51 48.59 46.46 49.38 53.28 53.84 54.74 55.42 54.28 52.19 52.39 53.08 52.06 51.10 51.78 50.63 50.40 50.17 48.83 48.59 48.74 49.76 49.44 48.66 48.64 48.53 48.09 48.05 48.02 48.47 49.25 51.21 52.25 53.53 53.76 52.79 52.88 52.15 51.48 51.94 51.22 50.62 50.50 52.17
42.01 49.67 49.53 47.42 45.08 41.38 47.64 38.81 46.40 48.00 50.00 53.13 53.81 53.11 51.79 52.57 52.54 49.69 48.38 50.21 49.40 49.12 49.10 48.82 48.94 48.39 49.38 49.11 47.40 45.36 44.48 44.02 45.86 46.14 46.92 47.00 48.95 49.26 50.77 52.43 52.71 52.40 51.80 51.55 51.64 52.94 52.34 50.98 50.71
46.48 51.59 49.36 47.57 43.71 42.96 42.48 40.93 43.24 47.87 48.21 50.16 52.33 52.94 51.99 50.92 50.52 47.39 47.35 48.56 48.67 48.93 48.30 49.72 48.32 47.62 47.50 47.67 46.42 44.98 44.07 44.33 45.24 45.37 44.92 45.95 46.69 47.96 49.51 50.66 51.36 51.62 51.89 52.07 52.07 52.13 52.38 51.89 51.59
52.44 47.14 44.89 40.34 40.20 35.91 40.84 39.05 39.24 44.84 47.35 49.67 49.49 50.43 51.52 50.59 50.34 47.14 47.31 46.86 46.41 46.91 46.94 47.14 46.26 46.14 46.63 46.72 46.49 45.20 44.02 43.89 44.27 44.62 44.67 45.28 45.44 46.76 49.77 51.43 51.11 52.18 53.17 52.58 52.12 51.99 52.29 52.91 52.76
46.34 38.82 32.23 30.42 32.45 33.21 41.41 38.26 39.25 45.99 49.81 50.48 49.67 50.13 50.43 48.96 45.70 45.40 44.71 44.34 45.01 44.83 44.99 45.99 44.91 45.67 46.39 46.21 46.49 45.60 45.03 44.94 45.08 45.03 44.79 45.01 45.77 48.77 50.81 52.51 53.06 53.37 52.76 51.96 51.73 51.98 51.82 51.86 52.51
41.24 39.77 34.85 29.94 29.16 33.67 41.71 37.52 40.13 48.88 51.33 50.76 50.97 48.68 45.57 43.49 43.88 43.95 43.82 43.90 43.88 44.40 44.28 44.33 44.64 45.47 46.00 45.64 45.71 45.88 45.84 45.44 45.84 46.02 45.75 47.96 48.92 50.14 51.80 51.68 52.80 52.90 52.64 51.70 51.41 51.65 51.87 51.38 52.03
42.42 39.30 40.43 37.17 36.79 34.55 37.45 43.70 48.15 49.97 48.83 48.69 47.62 46.29 42.36 42.40 42.73 43.04 43.44 43.36 42.79 43.29 43.59 43.72 45.34 45.38 45.86 45.87 45.70 46.27 45.99 45.68 45.76 45.82 47.26 49.44 50.21 50.82 50.77 51.05 52.00 51.37 51.52 51.77 51.52 51.19 50.77 51.79 51.92
45.02 44.89 36.70 35.92 31.29 29.35 35.46 37.21 37.59 46.02 45.44 46.92 46.28 43.89 41.46 41.54 41.71 42.29 42.83 44.45 43.77 43.57 43.90 45.21 45.96 45.56 45.63 46.03 46.13 46.65 46.02 46.13 46.25 46.38 47.63 48.37 48.66 48.30 48.86 50.00 50.05 50.07 50.37 51.32 51.67 52.14 51.00 50.93 51.10
41.92 39.56 38.82 37.91 35.79 31.42 30.03 33.99 42.13 45.98 47.38 46.69 46.17 43.24 41.35 40.88 42.49 43.31 44.07 44.86 43.59 43.82 44.46 45.40 45.91 46.10 46.58 46.69 46.37 46.97 47.59 46.79 46.26 46.29 46.47 46.65 47.26 47.71 48.13 48.08 47.89 48.63 49.20 50.16 51.44 52.45 52.11 51.26 50.57
43.29 39.58 37.79 34.54 33.83 34.45 32.90 33.27 44.03 46.37 48.68 47.84 45.29 42.32 42.36 42.66 43.45 43.84 43.89 44.57 43.56 43.38 44.10 44.79 45.63 46.02 47.18 47.98 47.08 46.76 48.10 49.43 49.08 46.97 45.95 46.69 47.26 47.76 47.25 47.37 47.05 47.96 48.37 49.27 50.60 51.19 51.23 50.11 49.28
MSLP
1011.78 1011.99 1012.26 1012.50 1013.94 1015.58 1016.60 1017.02 1016.88 1016.41 1015.96 1015.89 1015.39 1015.91 1016.71 1017.18 1017.85 1019.13 1018.84 1018.45 1018.17 1018.19 1018.05 1018.04 1018.06 1018.17 1018.42 1018.59 1018.68 1018.64 1018.58 1018.70 1018.75 1018.86 1018.92 1019.00 1019.05 1019.29 1019.29 1019.25 1019.15 1019.15 1019.14 1019.09 1019.01 1018.94 1018.85 1018.71 1018.51
1012.08 1012.45 1012.53 1013.16 1015.13 1016.78 1017.28 1017.06 1017.17 1017.09 1016.72 1016.26 1015.75 1016.13 1016.63 1017.76 1018.28 1019.02 1019.13 1018.93 1018.62 1018.60 1018.57 1018.52 1018.53 1018.61 1018.76 1018.87 1019.05 1019.06 1019.07 1019.19 1019.34 1019.34 1019.35 1019.35 1019.39 1019.54 1019.57 1019.50 1019.38 1019.33 1019.45 1019.36 1019.32 1019.23 1019.22 1019.06 1018.87
1012.21 1012.24 1013.29 1014.67 1016.57 1017.10 1017.06 1016.80 1016.92 1016.70 1016.40 1016.25 1016.32 1016.58 1017.32 1018.28 1018.49 1019.04 1019.30 1019.07 1019.00 1019.04 1018.99 1018.93 1018.97 1018.98 1019.09 1019.18 1019.27 1019.42 1019.42 1019.55 1019.58 1019.67 1019.68 1019.76 1019.70 1019.78 1019.82 1019.74 1019.76 1019.69 1019.78 1019.80 1019.81 1019.68 1019.58 1019.42 1019.36
1012.34 1012.92 1014.38 1015.56 1016.79 1016.94 1016.93 1016.68 1016.45 1016.67 1016.45 1016.53 1016.83 1017.76 1018.39 1018.39 1018.55 1019.09 1019.33 1019.16 1019.32 1019.52 1019.36 1019.35 1019.24 1019.27 1019.43 1019.56 1019.56 1019.66 1019.77 1019.78 1019.94 1020.00 1019.98 1020.00 1020.11 1020.13 1020.19 1020.17 1020.09 1020.06 1020.03 1020.08 1020.16 1019.96 1019.84 1019.78 1019.73
1012.54 1013.94 1015.89 1016.88 1017.11 1017.10 1016.90 1016.75 1016.68 1016.85 1017.31 1017.47 1017.38 1019.15 1019.35 1019.61 1019.09 1019.27 1019.48 1019.43 1019.89 1020.00 1020.06 1019.93 1019.73 1019.80 1019.92 1019.82 1020.00 1020.04 1020.06 1020.11 1020.09 1020.21 1020.35 1020.36 1020.49 1020.46 1020.36 1020.50 1020.51 1020.41 1020.32 1020.33 1020.25 1020.13 1020.10 1019.89 1019.84
1013.41 1014.68 1016.80 1017.35 1017.46 1016.92 1016.89 1016.90 1017.21 1017.56 1018.10 1018.37 1018.63 1019.46 1020.60 1020.89 1020.40 1020.29 1020.16 1020.29 1020.49 1020.53 1020.55 1020.53 1020.27 1020.21 1020.21 1020.24 1020.29 1020.39 1020.57 1020.42 1020.52 1020.48 1020.52 1020.67 1020.76 1020.69 1020.72 1020.79 1020.78 1020.69 1020.60 1020.55 1020.46 1020.31 1020.34 1020.12 1020.05
1013.68 1015.60 1017.02 1017.31 1017.28 1017.06 1017.17 1017.35 1018.02 1018.48 1018.75 1019.21 1019.60 1020.02 1021.30 1021.32 1021.44 1021.13 1020.86 1020.59 1021.01 1021.10 1020.94 1020.96 1020.92 1020.77 1020.71 1020.67 1020.69 1020.73 1020.78 1020.77 1020.86 1020.77 1020.81 1020.88 1020.96 1020.88 1020.95 1020.92 1020.98 1020.97 1020.88 1020.75 1020.63 1020.47 1020.33 1020.40 1020.16
1013.43 1015.29 1016.77 1017.01 1017.32 1017.62 1017.67 1018.04 1018.73 1018.94 1019.82 1019.76 1019.96 1020.55 1021.70 1022.00 1021.97 1021.62 1021.36 1020.96 1021.45 1021.67 1021.68 1021.78 1021.59 1021.52 1021.50 1021.53 1021.31 1021.39 1021.39 1021.31 1021.19 1021.15 1021.26 1021.27 1021.35 1021.26 1021.15 1021.13 1021.11 1020.94 1020.93 1020.87 1020.75 1020.74 1020.57 1020.80 1020.55
1013.17 1015.18 1016.52 1017.09 1017.57 1018.21 1018.34 1018.69 1019.47 1020.29 1020.40 1020.72 1021.05 1021.32 1022.09 1022.17 1022.33 1021.96 1022.14 1022.09 1022.44 1022.52 1022.31 1022.17 1022.19 1022.23 1022.09 1022.09 1022.25 1022.32 1022.13 1022.05 1022.02 1021.96 1021.81 1021.80 1021.79 1021.66 1021.46 1021.29 1021.13 1020.88 1020.78 1020.81 1020.84 1021.02 1020.71 1020.94 1020.92
1013.65 1015.47 1016.33 1017.04 1017.35 1018.66 1018.91 1018.94 1019.62 1020.49 1021.11 1021.50 1021.85 1022.27 1022.44 1022.52 1022.62 1022.79 1023.03 1023.23 1023.39 1023.46 1023.37 1023.03 1022.89 1022.79 1022.61 1022.75 1022.57 1022.75 1022.78 1022.78 1022.51 1022.44 1022.31 1022.18 1022.13 1022.02 1021.85 1021.64 1021.31 1021.18 1020.85 1020.82 1021.02 1021.11 1021.23 1021.22 1021.34
1014.52 1015.91 1016.56 1017.67 1018.09 1018.80 1019.69 1019.89 1020.10 1020.90 1021.68 1022.26 1022.69 1023.08 1023.35 1023.11 1023.16 1023.82 1024.04 1024.15 1024.25 1024.27 1024.06 1023.73 1023.57 1023.32 1023.37 1023.23 1023.34 1023.40 1023.20 1023.03 1022.92 1022.81 1022.76 1022.52 1022.34 1022.17 1022.13 1022.02 1021.91 1021.72 1021.64 1021.67 1021.76 1021.90 1021.64 1021.63 1021.69
1015.60 1016.98 1016.86 1018.27 1018.62 1019.13 1020.05 1021.11 1021.64 1021.87 1022.75 1023.16 1023.49 1023.70 1024.07 1024.33 1024.33 1024.57 1024.82 1024.73 1024.71 1024.62 1024.69 1024.46 1024.42 1024.24 1023.95 1023.70 1023.86 1023.82 1023.36 1023.36 1023.09 1023.10 1022.84 1022.63 1022.55 1022.35 1022.11 1022.08 1022.17 1022.12 1022.05 1021.93 1022.05 1021.98 1021.81 1021.78 1021.80
1016.30 1017.74 1018.54 1019.25 1019.29 1020.03 1020.71 1021.42 1022.16 1022.91 1023.40 1023.75 1024.10 1024.33 1024.59 1024.81 1025.05 1025.24 1025.31 1025.23 1025.17 1025.29 1025.27 1025.16 1024.98 1024.85 1024.56 1024.34 1024.30 1024.13 1024.06 1023.65 1023.68 1023.42 1023.16 1023.02 1022.86 1022.76 1022.55 1022.28 1022.13 1022.08 1022.12 1022.16 1021.99 1021.63 1021.57 1021.55 1021.78
1017.58 1018.51 1019.37 1019.98 1020.01 1020.55 1021.05 1021.99 1022.31 1023.77 1024.07 1024.39 1024.66 1024.97 1025.17 1025.23 1025.23 1025.49 1025.67 1025.62 1025.54 1025.60 1025.53 1025.34 1025.01 1025.14 1024.92 1024.93 1024.66 1024.49 1024.22 1024.03 1023.77 1023.50 1023.25 1023.02 1022.93 1022.98 1022.96 1022.76 1022.46 1022.19 1022.11 1022.07 1022.11 1022.03 1021.90 1021.53 1021.77
1017.99 1018.90 1019.89 1020.65 1020.67 1021.32 1021.13 1022.41 1023.36 1024.08 1024.39 1024.80 1025.24 1025.49 1025.49 1025.75 1025.75 1025.94 1026.02 1025.74 1025.64 1025.62 1025.29 1025.17 1024.98 1025.09 1024.94 1025.00 1024.86 1024.67 1024.41 1024.16 1023.95 1023.73 1023.42 1023.14 1023.02 1022.88 1022.90 1022.90 1022.71 1022.44 1022.20 1022.05 1021.87 1021.72 1021.74 1021.68 1021.33
1018.24 1019.34 1020.49 1021.29 1021.13 1021.16 1021.35 1023.03 1023.75 1024.24 1024.67 1025.24 1025.67 1025.91 1026.15 1026.08 1026.12 1026.12 1026.11 1025.88 1025.78 1025.82 1025.93 1025.73 1025.44 1025.57 1025.47 1025.32 1025.08 1024.71 1024.48 1024.35 1024.18 1023.98 1023.57 1023.24 1023.02 1022.91 1022.78 1022.89 1022.72 1022.46 1022.28 1022.09 1021.94 1021.75 1021.60 1021.43 1021.23
1018.89 1019.91 1020.64 1021.25 1021.37 1021.47 1021.84 1023.17 1023.90 1024.28 1024.70 1025.20 1025.79 1026.24 1026.55 1026.62 1026.36 1026.23 1026.13 1025.85 1026.04 1026.17 1026.17 1026.00 1025.94 1025.96 1025.79 1025.49 1025.09 1024.92 1024.74 1024.55 1024.51 1024.05 1023.77 1023.48 1023.17 1022.86 1022.68 1022.70 1022.58 1022.45 1022.18 1022.28 1022.10 1021.80 1021.66 1021.40 1021.21
1018.24 1019.83 1020.97 1021.49 1021.93 1022.13 1022.87 1023.73 1024.15 1024.50 1024.73 1025.49 1026.03 1026.43 1026.64 1026.51 1026.31 1026.35 1026.04 1025.87 1025.92 1026.07 1026.15 1026.13 1026.20 1026.13 1025.94 1025.72 1025.34 1025.06 1024.86 1024.70 1024.67 1024.31 1023.86 1023.49 1023.14 1022.80 1022.70 1022.59 1022.43 1022.21 1022.06 1022.16 1022.12 1022.04 1021.69 1021.42 1021.14
1017.08 1019.26 1020.89 1021.93 1022.19 1022.41 1023.63 1024.15 1024.63 1024.83 1025.32 1025.89 1026.10 1026.37 1026.47 1026.46 1026.38 1026.18 1026.10 1025.92 1025.86 1025.97 1026.31 1026.67 1026.66 1026.65 1026.44 1026.30 1026.16 1025.95 1025.88 1025.34 1024.76 1024.46 1024.12 1023.74 1023.28 1022.92 1022.78 1022.64 1022.37 1022.24 1022.18 1022.08 1022.01 1021.90 1021.70 1021.37 1021.15
1017.54 1019.50 1021.45 1022.50 1022.76 1023.00 1024.14 1024.55 1024.83 1024.96 1025.27 1025.67 1025.84 1026.22 1026.41 1026.44 1026.34 1026.31 1026.34 1026.46 1026.50 1026.92 1027.16 1027.19 1027.04 1026.98 1026.89 1026.79 1026.62 1026.45 1026.06 1025.51 1025.23 1024.89 1024.39 1024.04 1023.57 1023.07 1022.69 1022.63 1022.33 1022.31 1022.23 1022.07 1021.87 1021.84 1021.65 1021.45 1021.06
1017.11 1018.48 1020.59 1021.60 1023.14 1023.77 1023.89 1024.51 1024.63 1024.80 1024.96 1025.21 1025.46 1025.82 1026.23 1026.46 1026.58 1026.71 1026.96 1027.06 1027.22 1027.36 1027.55 1027.51 1027.50 1027.38 1027.20 1026.93 1026.51 1026.14 1025.82 1025.68 1025.39 1025.13 1024.74 1024.31 1023.79 1023.30 1022.88 1022.54 1022.21 1022.24 1022.07 1021.92 1021.64 1021.59 1021.64 1021.41 1020.98
1016.54 1017.47 1019.49 1020.91 1022.21 1023.48 1023.89 1024.56 1024.54 1024.66 1024.72 1025.01 1025.40 1025.79 1026.28 1026.60 1026.97 1027.33 1027.38 1027.49 1027.76 1027.85 1027.76 1027.76 1027.74 1027.51 1027.06 1026.95 1026.88 1027.01 1027.02 1026.68 1026.07 1025.68 1025.26 1024.67 1024.07 1023.57 1023.04 1022.68 1022.34 1022.06 1021.92 1021.64 1021.41 1021.30 1021.31 1021.28 1020.98
1017.03 1018.26 1019.75 1021.38 1022.30 1023.18 1024.24 1024.61 1024.46 1024.50 1024.63 1024.61 1025.37 1025.82 1026.39 1026.94 1027.36 1027.80 1027.94 1028.24 1028.33 1028.09 1028.09 1028.02 1027.88 1027.71 1027.60 1027.42 1027.48 1027.37 1027.15 1026.84 1026.32 1025.81 1025.38 1024.83 1024.22 1023.67 1023.04 1022.57 1022.22 1021.87 1021.79 1021.32 1021.30 1021.11 1020.96 1020.94 1020.75
1017.22 1019.06 1020.84 1022.24 1023.22 1024.12 1024.25 1024.57 1024.54 1024.61 1024.43 1024.88 1025.70 1026.14 1026.65 1027.23 1027.71 1028.26 1028.50 1028.65 1028.61 1028.57 1028.47 1028.36 1028.27 1028.14 1027.97 1027.83 1027.68 1027.55 1027.35 1026.88 1026.45 1025.99 1025.46 1024.90 1024.30 1023.61 1022.94 1022.38 1022.17 1021.92 1021.53 1021.26 1021.11 1020.89 1020.69 1020.59 1020.57
1016.79 1018.90 1021.74 1023.25 1023.80 1024.39 1024.34 1024.61 1024.31 1024.13 1024.29 1024.81 1025.69 1026.28 1027.00 1027.56 1028.20 1028.72 1029.06 1029.17 1029.16 1029.07 1028.92 1028.61 1028.60 1028.50 1028.28 1028.03 1027.76 1027.60 1027.19 1026.79 1026.50 1026.09 1025.59 1024.98 1024.45 1023.60 1023.02 1022.52 1022.12 1021.78 1021.66 1021.47 1021.15 1020.86 1020.62 1020.45 1020.49
1016.80 1017.92 1019.84 1021.92 1023.73 1024.56 1024.51 1024.67 1024.31 1024.28 1024.50 1025.03 1025.84 1026.96 1027.74 1028.46 1029.02 1029.36 1029.54 1029.58 1029.54 1029.45 1029.20 1029.05 1028.85 1028.72 1028.38 1028.15 1027.90 1027.54 1027.08 1026.76 1026.43 1026.13 1025.49 1024.92 1024.50 1023.97 1023.27 1022.85 1022.37 1022.07 1021.81 1021.57 1021.15 1020.83 1020.78 1020.67 1020.65
1016.79 1018.13 1019.49 1021.59 1023.74 1024.57 1024.89 1024.75 1024.54 1024.84 1025.28 1025.70 1026.57 1027.54 1028.49 1029.11 1029.59 1029.70 1029.65 1029.80 1029.82 1029.58 1029.47 1029.40 1029.00 1028.77 1028.42 1028.26 1027.92 1027.52 1027.07 1026.78 1026.47 1025.98 1025.38 1024.98 1024.40 1023.97 1023.57 1022.99 1022.70 1022.43 1022.06 1021.62 1021.19 1021.10 1021.15 1021.09 1021.14
1016.70 1018.49 1019.98 1021.89 1024.12 1025.08 1025.15 1025.04 1024.94 1025.45 1025.91 1026.30 1027.04 1027.88 1028.76 1029.40 1029.74 1029.78 1029.89 1029.90 1029.82 1029.72 1029.66 1029.32 1029.04 1028.86 1028.58 1028.27 1027.99 1027.56 1027.14 1026.78 1026.43 1026.00 1025.60 1025.20 1024.75 1024.34 1023.88 1023.40 1023.16 1022.86 1022.42 1021.90 1021.48 1021.42 1021.49 1021.55 1021.67
1017.84 1019.06 1020.96 1022.55 1024.22 1024.87 1025.51 1025.19 1024.82 1025.06 1025.54 1026.12 1026.79 1027.89 1028.87 1029.49 1029.72 1029.92 1029.91 1029.91 1029.92 1029.91 1029.75 1029.44 1029.15 1028.95 1028.57 1028.27 1027.89 1027.48 1027.06 1026.65 1026.33 1026.09 1025.90 1025.57 1025.05 1024.56 1024.17 1023.87 1023.53 1023.23 1022.84 1022.50 1022.12 1021.97 1021.95 1021.96 1022.04
1018.75 1020.12 1021.32 1022.90 1024.67 1025.28 1025.46 1025.34 1025.01 1024.97 1025.30 1025.90 1027.12 1028.06 1028.90 1029.25 1029.56 1029.77 1029.86 1029.98 1030.12 1030.10 1029.85 1029.59 1029.28 1028.99 1028.56 1028.23 1027.87 1027.47 1027.03 1026.61 1026.31 1026.12 1025.96 1025.62 1025.18 1024.81 1024.53 1024.23 1023.94 1023.69 1023.36 1023.06 1022.73 1022.50 1022.51 1022.49 1022.54
Wind_Speed
6 5 3 3 7 6 2 4 2 8 4 6 10 8 7 8 4 4 5 0 5 6 6 7 10 13 12 12 13 13 13 12 13 12 12 12 13 12 12 12 12 14 15 16 16 16 16 15 15
5 2 3 3 7 4 3 1 5 2 4 8 6 8 11 7 5 4 3 3 6 5 5 6 10 11 11 12 12 11 11 11 11 11 11 12 11 11 11 11 12 13 14 15 15 16 17 17 16
5 2 5 6 4 4 4 4 4 1 2 2 3 6 4 2 3 3 4 5 6 6 6 6 9 9 10 11 10 10 9 9 9 9 10 10 10 9 9 10 10 11 12 14 14 15 16 16 16
3 5 6 6 5 1 4 6 3 3 4 9 4 7 5 3 3 6 7 7 7 6 6 7 9 9 10 10 10 9 8 8 7 7 8 8 8 8 7 7 8 8 10 11 12 13 14 14 14
4 4 6 3 3 2 5 6 5 6 6 12 10 7 6 12 10 10 9 8 8 7 6 5 9 9 9 11 10 9 8 7 6 6 5 5 5 5 5 4 4 6 7 8 10 10 10 10 11
5 4 6 1 2 1 3 5 8 9 9 6 8 4 5 9 12 10 11 11 9 8 7 7 10 10 11 11 10 9 8 7 5 4 4 3 2 2 2 2 2 3 5 7 8 9 9 9 8
8 5 5 5 5 2 3 6 5 11 7 7 6 4 3 12 10 10 10 12 11 9 9 8 7 10 12 12 11 10 10 9 7 6 4 3 3 3 4 4 4 4 5 5 7 8 9 10 7
7 6 5 3 4 3 3 4 3 11 9 4 6 6 3 5 7 9 10 12 12 10 10 9 9 8 7 8 13 15 14 12 12 12 12 11 10 9 8 10 7 7 5 5 6 8 10 9 10
3 6 2 2 4 6 2 6 12 10 14 10 8 9 10 9 9 11 11 14 11 11 11 10 10 9 8 9 11 12 13 14 12 10 12 8 5 5 6 8 9 8 8 6 4 7 7 9 11
6 4 5 1 4 8 9 10 9 7 11 11 11 13 14 11 11 13 12 11 12 13 12 9 10 9 9 7 7 7 8 6 6 6 6 4 4 4 7 8 10 12 9 4 5 5 6 7 4
3 3 4 12 17 14 13 19 5 12 8 8 8 12 11 12 14 11 11 11 9 7 9 10 9 9 7 6 4 3 3 4 3 5 5 4 4 3 3 3 4 4 8 4 5 5 3 5 4
9 13 8 5 8 6 7 10 13 13 9 11 11 10 10 12 11 9 8 8 6 8 8 10 9 8 8 5 4 4 4 4 4 4 5 3 3 3 2 2 3 3 3 3 3 2 3 4 5
9 6 13 17 22 20 18 17 11 11 11 11 11 11 11 10 9 6 5 6 6 8 6 6 6 6 5 6 4 4 4 4 4 3 4 3 3 4 4 3 2 2 3 3 3 2 5 4 5
11 15 11 9 12 9 12 6 4 8 10 10 10 9 8 8 7 6 6 5 6 5 5 4 7 6 6 5 6 4 4 4 4 3 3 2 1 2 3 4 4 3 2 2 3 4 3 1 3
10 15 10 7 6 10 10 7 6 10 8 9 8 7 7 6 6 5 3 4 3 1 2 5 4 4 6 4 4 3 4 5 5 5 5 4 3 1 2 2 3 3 3 4 3 3 3 3 2
6 5 5 3 2 4 0 5 9 7 8 8 6 4 4 3 4 4 3 2 1 4 6 5 6 8 8 7 5 4 4 4 4 5 4 5 5 4 2 2 3 2 3 3 3 3 4 4 3
2 4 7 4 2 2 1 5 7 2 6 6 4 4 2 1 2 1 2 3 5 3 4 6 7 7 7 6 5 6 6 5 5 4 4 5 5 5 3 2 3 3 2 3 3 2 3 3 4
8 7 4 4 4 6 7 9 3 2 6 5 5 3 2 3 0 3 5 4 3 2 4 5 4 7 7 4 5 5 5 6 4 5 4 7 5 5 3 3 3 1 2 3 2 3 3 4 4
11 9 12 5 4 8 6 5 4 2 4 4 4 3 3 3 3 3 5 5 4 4 6 7 7 7 5 4 3 3 3 3 3 5 7 7 6 6 5 3 3 3 3 3 3 2 3 2 1
16 19 9 5 4 6 3 4 2 2 2 5 5 4 4 3 3 3 6 6 7 7 7 6 6 7 5 3 2 2 3 3 2 4 7 8 9 7 5 5 4 4 3 4 3 2 2 2 2
5 8 12 10 8 6 9 2 2 1 4 5 5 3 3 3 3 4 6 6 6 7 6 7 6 6 3 4 3 4 3 3 3 6 5 8 9 9 7 6 4 5 3 4 3 3 4 3 2
0 10 14 20 8 6 4 2 4 4 4 5 4 1 4 3 1 5 5 6 6 5 5 6 5 5 6 7 6 5 2 3 3 3 4 6 8 8 8 7 5 4 3 4 3 2 3 3 4
3 12 13 9 5 7 2 1 3 4 4 4 5 5 5 2 3 5 7 5 4 6 6 5 6 7 7 6 5 4 4 3 3 4 7 6 7 7 7 6 6 3 3 2 3 2 2 3 2
19 14 8 6 3 3 3 3 3 4 5 1 2 4 4 3 5 6 5 5 6 6 6 6 7 5 6 6 6 6 6 7 6 6 6 6 5 5 6 7 3 2 3 4 3 3 3 2 2
7 6 3 3 2 3 2 3 5 5 4 4 7 7 2 4 6 5 5 5 5 6 6 6 7 6 7 6 6 6 6 5 5 6 4 7 5 4 8 7 5 3 4 4 3 3 4 3 1
2 6 6 5 3 3 2 3 4 1 5 4 5 5 6 6 5 5 4 4 6 6 7 7 6 6 6 6 7 6 6 4 4 4 5 4 4 5 6 5 5 7 8 4 4 2 3 3 3
2 4 3 8 3 3 2 1 2 4 3 3 6 6 6 5 4 3 5 4 4 6 7 6 7 6 6 6 6 6 6 5 5 6 5 4 5 5 5 5 7 8 7 6 4 4 5 5 5
7 4 2 4 4 2 2 3 5 4 5 5 6 7 6 4 4 2 3 3 4 4 5 5 5 5 5 6 5 5 5 5 5 5 7 7 6 5 5 5 5 5 6 7 6 4 5 6 4
5 4 7 6 3 5 2 5 4 9 10 11 7 7 7 6 4 1 2 3 5 5 5 6 6 6 6 6 5 5 5 5 4 4 5 5 5 6 5 5 6 7 8 7 5 5 6 7 6
4 3 3 6 1 2 3 5 5 7 9 6 6 7 7 5 4 1 2 3 5 5 6 6 5 6 5 5 5 5 5 5 5 5 5 5 5 4 4 5 6 6 7 7 6 6 6 6 6
Wind_Direction
113 109 65 32 57 63 3 45 338 351 60 62 59 56 88 30 26 128 321 140 28 47 49 68 84 86 83 81 82 86 92 94 99 103 106 106 107 105 99 91 86 82 76 72 69 65 67 63 57
125 122 38 72 83 63 334 33 50 358 340 317 67 62 51 43 54 73 2 29 41 48 51 66 85 87 86 81 82 85 92 99 102 100 107 109 107 102 94 91 87 82 76 75 70 67 65 63 62
138 12 71 79 78 131 137 152 102 303 7 239 70 61 55 25 58 83 64 81 75 56 53 70 80 82 82 84 83 86 93 100 105 106 107 107 106 101 97 91 84 80 73 70 66 65 67 63 61
133 11 35 76 140 167 28 76 126 60 5 37 51 57 53 18 79 91 117 93 69 51 52 69 76 78 83 78 77 79 85 93 100 102 103 110 108 107 98 92 89 78 69 66 67 64 65 65 64
43 61 60 59 1 25 52 65 47 79 93 58 63 60 68 36 78 74 78 72 72 51 37 49 65 69 70 74 68 69 73 82 88 89 92 92 97 99 94 87 78 66 59 52 51 61 61 65 70
55 92 65 214 53 303 63 59 66 67 47 27 75 106 56 10 39 48 60 57 47 44 34 25 47 59 60 64 66 62 58 60 73 85 83 84 76 66 42 17 17 28 28 29 25 32 37 32 43
106 76 177 146 169 87 87 81 42 70 58 36 324 63 76 33 19 55 66 68 53 39 40 29 26 42 52 64 62 61 54 47 41 44 42 31 6 349 330 324 327 342 347 358 5 7 25 28 40
103 90 152 208 172 104 52 70 71 43 40 336 349 128 92 56 32 63 52 63 59 39 38 27 26 25 35 26 50 57 46 42 43 49 45 32 22 8 2 357 327 305 303 320 347 350 17 38 30
109 72 213 101 119 105 53 82 55 82 74 54 48 73 90 75 57 62 51 45 39 36 35 36 33 36 36 44 40 35 41 40 36 34 29 24 13 4 5 345 328 300 283 286 331 324 36 44 37
85 113 165 114 105 87 81 92 116 102 90 80 83 76 77 70 65 55 46 45 38 31 25 33 39 37 46 47 41 25 30 29 29 23 21 18 19 3 15 2 357 358 325 312 17 13 23 36 45
64 87 98 63 103 94 88 57 66 115 70 63 90 85 75 62 57 53 55 55 48 37 37 30 33 36 37 36 33 27 8 14 5 11 359 359 3 9 14 10 12 15 8 8 359 333 355 6 12
96 33 67 82 65 79 75 84 72 71 91 99 91 93 83 64 56 53 57 63 57 50 36 30 22 27 28 37 33 18 20 5 5 352 351 354 336 345 11 13 341 343 336 2 346 341 332 348 340
67 84 67 94 89 85 93 80 97 102 103 95 96 92 87 86 76 55 66 60 64 53 37 34 34 35 26 49 33 28 13 9 331 327 337 2 359 354 346 356 3 11 341 330 325 299 312 332 327
104 90 91 80 80 62 100 113 75 84 91 85 79 77 80 79 85 75 52 57 62 61 41 39 48 36 37 30 27 15 7 355 347 310 297 311 357 352 353 344 348 0 6 321 289 299 290 288 266
103 91 63 18 87 118 111 46 74 98 108 96 85 97 95 81 74 85 135 110 118 126 109 48 55 57 57 34 14 10 16 7 358 336 312 311 300 306 339 329 323 318 329 322 315 303 292 281 270
81 60 96 251 301 195 130 142 119 127 114 107 114 118 105 106 129 131 165 133 46 35 33 22 24 22 17 12 4 12 9 358 355 354 336 306 298 289 292 290 275 305 324 322 311 307 297 286 297
299 139 137 171 317 131 41 143 114 126 131 139 128 115 124 156 144 129 34 25 350 12 8 28 29 18 357 351 358 4 357 7 334 346 343 331 327 321 264 252 273 292 350 314 304 291 248 280 283
180 124 58 93 357 77 79 94 86 357 148 123 122 123 197 237 241 343 330 342 299 18 34 39 42 15 0 355 357 356 351 346 343 344 346 337 330 324 302 262 279 328 343 291 282 282 296 261 268
98 88 112 124 85 96 85 104 115 275 99 125 154 177 212 260 293 309 321 337 344 59 51 34 28 7 24 1 355 340 316 302 327 349 341 341 336 350 360 346 336 332 308 278 284 275 274 291 279
106 118 114 43 66 90 107 98 205 209 149 194 173 204 215 255 329 358 27 28 34 43 44 33 24 18 15 4 317 288 298 309 305 338 337 341 336 336 334 334 332 322 296 284 278 262 291 268 234
170 128 162 142 114 64 143 104 121 314 158 184 167 164 199 254 293 22 12 34 52 57 38 36 19 3 345 352 342 351 345 327 337 348 334 334 335 337 332 324 331 302 276 270 279 262 231 250 281
281 136 140 140 137 157 178 197 211 180 256 186 193 169 203 232 33 44 44 47 50 44 36 27 11 359 8 7 15 12 328 311 302 306 305 317 325 325 321 309 289 281 290 277 288 261 247 217 248
113 124 128 110 84 106 216 230 138 115 252 242 194 213 213 225 56 79 64 67 38 31 20 15 9 13 1 11 13 351 337 307 304 314 326 320 318 314 314 309 307 328 290 326 284 279 242 235 243
123 91 46 40 74 66 193 156 257 183 217 128 153 214 207 221 105 95 76 49 33 14 13 4 5 3 1 355 348 354 339 324 331 332 332 327 321 309 326 338 337 316 334 348 338 318 280 254 236
80 114 75 315 8 216 183 102 242 234 238 181 179 215 190 91 111 102 70 39 15 8 356 359 12 350 348 346 351 335 324 324 328 327 319 332 335 332 336 349 5 5 11 354 340 359 350 344 65
172 156 155 238 194 205 20 208 248 2 95 125 148 102 91 88 89 99 65 30 6 351 358 358 351 334 350 351 340 325 341 339 324 318 325 320 319 321 320 323 357 19 357 302 324 23 30 36 65
163 51 141 101 42 89 229 180 341 88 90 125 142 126 125 116 118 95 39 17 343 359 352 336 339 334 335 338 335 332 340 345 331 328 315 329 328 333 345 7 7 4 347 346 354 38 48 57 63
93 147 42 24 139 164 264 289 235 194 213 211 196 166 146 124 115 77 8 1 355 358 332 331 352 338 321 330 318 325 322 333 334 335 348 343 339 343 0 14 12 356 355 360 10 39 64 71 54
356 20 57 111 97 150 165 266 220 203 200 210 202 156 147 150 171 209 358 15 2 342 337 327 346 332 331 330 314 321 322 331 351 356 342 336 333 356 23 12 8 14 6 8 10 41 59 69 63
70 59 92 112 205 56 123 281 335 234 214 196 135 137 143 163 168 131 25 355 349 335 332 329 330 331 324 316 315 319 316 326 353 2 344 338 357 1 15 18 25 19 14 15 24 50 52 51 54